Year,Month,Day,Hour,Minute,Value (Times are PST for temperature in C)
2009,07,30,00,00,16.80
2009,07,30,00,01,16.80
2009,07,30,00,02,16.80
2009,07,30,00,03,16.80
2009,07,30,00,04,16.90
2009,07,30,00,05,16.90
2009,07,30,00,06,16.90
2009,07,30,00,07,16.90
2009,07,30,00,08,16.90
2009,07,30,00,09,16.90
2009,07,30,00,10,17.00
2009,07,30,00,11,17.00
2009,07,30,00,12,17.00
2009,07,30,00,13,17.10
2009,07,30,00,14,17.10
2009,07,30,00,15,17.10
2009,07,30,00,16,17.10
2009,07,30,00,17,17.10
2009,07,30,00,18,17.20
2009,07,30,00,19,17.20
2009,07,30,00,20,17.30
2009,07,30,00,21,17.30
2009,07,30,00,22,17.40
2009,07,30,00,23,17.50
2009,07,30,00,24,17.60
2009,07,30,00,25,17.70
2009,07,30,00,26,17.80
2009,07,30,00,27,17.90
2009,07,30,00,28,18.00
2009,07,30,00,29,18.10
2009,07,30,00,30,18.20
2009,07,30,00,31,18.20
2009,07,30,00,32,18.30
2009,07,30,00,33,18.40
2009,07,30,00,34,18.50
2009,07,30,00,35,18.60
2009,07,30,00,36,18.60
2009,07,30,00,37,18.70
2009,07,30,00,38,18.70
2009,07,30,00,39,18.80
2009,07,30,00,40,18.80
2009,07,30,00,41,18.80
2009,07,30,00,42,18.80
2009,07,30,00,43,18.90
2009,07,30,00,44,18.90
2009,07,30,00,45,18.90
2009,07,30,00,46,19.00
2009,07,30,00,47,19.10
2009,07,30,00,48,19.10
2009,07,30,00,49,19.10
2009,07,30,00,50,19.10
2009,07,30,00,51,19.20
2009,07,30,00,52,19.30
2009,07,30,00,53,19.30
2009,07,30,00,54,19.40
2009,07,30,00,55,19.40
2009,07,30,00,56,19.50
2009,07,30,00,57,19.50
2009,07,30,00,58,19.60
2009,07,30,00,59,19.60
2009,07,30,01,00,19.60
2009,07,30,01,01,19.70
2009,07,30,01,02,19.70
2009,07,30,01,03,19.70
2009,07,30,01,04,19.80
2009,07,30,01,05,19.80
2009,07,30,01,06,19.80
2009,07,30,01,07,19.80
2009,07,30,01,08,19.90
2009,07,30,01,09,19.90
2009,07,30,01,10,19.90
2009,07,30,01,11,19.90
2009,07,30,01,12,20.00
2009,07,30,01,13,20.10
2009,07,30,01,14,20.20
2009,07,30,01,15,20.20
2009,07,30,01,16,20.20
2009,07,30,01,17,20.20
2009,07,30,01,18,20.20
2009,07,30,01,19,20.30
2009,07,30,01,20,20.30
2009,07,30,01,21,20.30
2009,07,30,01,22,20.30
2009,07,30,01,23,20.30
2009,07,30,01,24,20.30
2009,07,30,01,25,20.40
2009,07,30,01,26,20.40
2009,07,30,01,27,20.30
2009,07,30,01,28,20.30
2009,07,30,01,29,20.20
2009,07,30,01,30,20.20
2009,07,30,01,31,20.20
2009,07,30,01,32,20.10
2009,07,30,01,33,20.00
2009,07,30,01,34,19.90
2009,07,30,01,35,19.90
2009,07,30,01,36,19.90
2009,07,30,01,37,19.80
2009,07,30,01,38,19.70
2009,07,30,01,39,19.70
2009,07,30,01,40,19.60
2009,07,30,01,41,19.60
2009,07,30,01,42,19.50
2009,07,30,01,43,19.50
2009,07,30,01,44,19.40
2009,07,30,01,45,19.40
2009,07,30,01,46,19.40
2009,07,30,01,47,19.30
2009,07,30,01,48,19.30
2009,07,30,01,49,19.30
2009,07,30,01,50,19.30
2009,07,30,01,51,19.30
2009,07,30,01,52,19.20
2009,07,30,01,53,19.20
2009,07,30,01,54,19.10
2009,07,30,01,55,19.00
2009,07,30,01,56,18.90
2009,07,30,01,57,18.70
2009,07,30,01,58,18.70
2009,07,30,01,59,18.60
2009,07,30,02,00,18.50
2009,07,30,02,01,18.50
2009,07,30,02,02,18.50
2009,07,30,02,03,18.40
2009,07,30,02,04,18.30
2009,07,30,02,05,18.20
2009,07,30,02,06,18.20
2009,07,30,02,07,18.10
2009,07,30,02,08,18.00
2009,07,30,02,09,17.90
2009,07,30,02,10,17.90
2009,07,30,02,11,17.80
2009,07,30,02,12,17.70
2009,07,30,02,13,17.60
2009,07,30,02,14,17.50
2009,07,30,02,15,17.40
2009,07,30,02,16,17.30
2009,07,30,02,17,17.30
2009,07,30,02,18,17.30
2009,07,30,02,19,17.30
2009,07,30,02,20,17.20
2009,07,30,02,21,17.20
2009,07,30,02,22,17.20
2009,07,30,02,23,17.20
2009,07,30,02,24,17.10
2009,07,30,02,25,17.10
2009,07,30,02,26,17.00
2009,07,30,02,27,17.00
2009,07,30,02,28,17.00
2009,07,30,02,29,17.00
2009,07,30,02,30,17.00
2009,07,30,02,31,17.00
2009,07,30,02,32,16.90
2009,07,30,02,33,16.90
2009,07,30,02,34,16.90
2009,07,30,02,35,16.90
2009,07,30,02,36,16.90
2009,07,30,02,37,16.80
2009,07,30,02,38,16.70
2009,07,30,02,39,16.70
2009,07,30,02,40,16.70
2009,07,30,02,41,16.70
2009,07,30,02,42,16.70
2009,07,30,02,43,16.70
2009,07,30,02,44,16.70
2009,07,30,02,45,16.70
2009,07,30,02,46,16.70
2009,07,30,02,47,16.70
2009,07,30,02,48,16.70
2009,07,30,02,49,16.70
2009,07,30,02,50,16.70
2009,07,30,02,51,16.70
2009,07,30,02,52,16.70
2009,07,30,02,53,16.70
2009,07,30,02,54,16.70
2009,07,30,02,55,16.70
2009,07,30,02,56,16.60
2009,07,30,02,57,16.60
2009,07,30,02,58,16.60
2009,07,30,02,59,16.60
2009,07,30,03,00,16.60
2009,07,30,03,01,16.60
2009,07,30,03,02,16.60
2009,07,30,03,03,16.50
2009,07,30,03,04,16.40
2009,07,30,03,05,16.40
2009,07,30,03,06,16.40
2009,07,30,03,07,16.40
2009,07,30,03,08,16.40
2009,07,30,03,09,16.40
2009,07,30,03,10,16.40
2009,07,30,03,11,16.40
2009,07,30,03,12,16.40
2009,07,30,03,13,16.40
2009,07,30,03,14,16.40
2009,07,30,03,15,16.40
2009,07,30,03,16,16.40
2009,07,30,03,17,16.40
2009,07,30,03,18,16.40
2009,07,30,03,19,16.40
2009,07,30,03,20,16.40
2009,07,30,03,21,16.40
2009,07,30,03,22,16.40
2009,07,30,03,23,16.40
2009,07,30,03,24,16.40
2009,07,30,03,25,16.40
2009,07,30,03,26,16.40
2009,07,30,03,27,16.40
2009,07,30,03,28,16.40
2009,07,30,03,29,16.40
2009,07,30,03,30,16.40
2009,07,30,03,31,16.40
2009,07,30,03,32,16.40
2009,07,30,03,33,16.40
2009,07,30,03,34,16.40
2009,07,30,03,35,16.40
2009,07,30,03,36,16.40
2009,07,30,03,37,16.40
2009,07,30,03,38,16.40
2009,07,30,03,39,16.40
2009,07,30,03,40,16.30
2009,07,30,03,41,16.30
2009,07,30,03,42,16.30
2009,07,30,03,43,16.30
2009,07,30,03,44,16.30
2009,07,30,03,45,16.30
2009,07,30,03,46,16.30
2009,07,30,03,47,16.30
2009,07,30,03,48,16.20
2009,07,30,03,49,16.20
2009,07,30,03,50,16.20
2009,07,30,03,51,16.10
2009,07,30,03,52,16.10
2009,07,30,03,53,16.10
2009,07,30,03,54,16.10
2009,07,30,03,55,16.10
2009,07,30,03,56,16.10
2009,07,30,03,57,16.10
2009,07,30,03,58,16.10
2009,07,30,03,59,16.10
2009,07,30,04,00,16.10
2009,07,30,04,01,16.10
2009,07,30,04,02,16.10
2009,07,30,04,03,16.00
2009,07,30,04,04,15.90
2009,07,30,04,05,15.90
2009,07,30,04,06,15.90
2009,07,30,04,07,15.90
2009,07,30,04,08,15.90
2009,07,30,04,09,15.90
2009,07,30,04,10,15.90
2009,07,30,04,11,16.00
2009,07,30,04,12,16.10
2009,07,30,04,13,16.10
2009,07,30,04,14,16.10
2009,07,30,04,15,16.10
2009,07,30,04,16,16.10
2009,07,30,04,17,16.10
2009,07,30,04,18,16.10
2009,07,30,04,19,16.10
2009,07,30,04,20,16.10
2009,07,30,04,21,16.10
2009,07,30,04,22,16.10
2009,07,30,04,23,16.10
2009,07,30,04,24,16.10
2009,07,30,04,25,16.10
2009,07,30,04,26,16.20
2009,07,30,04,27,16.20
2009,07,30,04,28,16.20
2009,07,30,04,29,16.20
2009,07,30,04,30,16.20
2009,07,30,04,31,16.20
2009,07,30,04,32,16.20
2009,07,30,04,33,16.20
2009,07,30,04,34,16.20
2009,07,30,04,35,16.30
2009,07,30,04,36,16.30
2009,07,30,04,37,16.30
2009,07,30,04,38,16.30
2009,07,30,04,39,16.40
2009,07,30,04,40,16.40
2009,07,30,04,41,16.40
2009,07,30,04,42,16.40
2009,07,30,04,43,16.50
2009,07,30,04,44,16.60
2009,07,30,04,45,16.70
2009,07,30,04,46,16.70
2009,07,30,04,47,16.80
2009,07,30,04,48,16.80
2009,07,30,04,49,16.90
2009,07,30,04,50,17.00
2009,07,30,04,51,17.10
2009,07,30,04,52,17.20
2009,07,30,04,53,17.20
2009,07,30,04,54,17.30
2009,07,30,04,55,17.30
2009,07,30,04,56,17.40
2009,07,30,04,57,17.40
2009,07,30,04,58,17.50
2009,07,30,04,59,17.50
2009,07,30,05,00,17.60
2009,07,30,05,01,17.60
2009,07,30,05,02,17.70
2009,07,30,05,03,17.70
2009,07,30,05,04,17.70
2009,07,30,05,05,17.70
2009,07,30,05,06,17.70
2009,07,30,05,07,17.80
2009,07,30,05,08,17.80
2009,07,30,05,09,17.80
2009,07,30,05,10,17.80
2009,07,30,05,11,17.80
2009,07,30,05,12,17.90
2009,07,30,05,13,17.90
2009,07,30,05,14,17.90
2009,07,30,05,15,17.90
2009,07,30,05,16,17.90
2009,07,30,05,17,17.90
2009,07,30,05,18,17.90
2009,07,30,05,19,17.90
2009,07,30,05,20,17.90
2009,07,30,05,21,17.90
2009,07,30,05,22,17.90
2009,07,30,05,23,17.90
2009,07,30,05,24,17.90
2009,07,30,05,25,18.00
2009,07,30,05,26,18.10
2009,07,30,05,27,18.10
2009,07,30,05,28,18.10
2009,07,30,05,29,18.10
2009,07,30,05,30,18.10
2009,07,30,05,31,18.10
2009,07,30,05,32,18.10
2009,07,30,05,33,18.20
2009,07,30,05,34,18.20
2009,07,30,05,35,18.20
2009,07,30,05,36,18.20
2009,07,30,05,37,18.20
2009,07,30,05,38,18.20
2009,07,30,05,39,18.20
2009,07,30,05,40,18.20
2009,07,30,05,41,18.20
2009,07,30,05,42,18.20
2009,07,30,05,43,18.20
2009,07,30,05,44,18.20
2009,07,30,05,45,18.20
2009,07,30,05,46,18.20
2009,07,30,05,47,18.20
2009,07,30,05,48,18.20
2009,07,30,05,49,18.10
2009,07,30,05,50,18.10
2009,07,30,05,51,18.10
2009,07,30,05,52,18.10
2009,07,30,05,53,18.00
2009,07,30,05,54,18.10
2009,07,30,05,55,18.10
2009,07,30,05,56,18.10
2009,07,30,05,57,18.10
2009,07,30,05,58,18.20
2009,07,30,05,59,18.20
2009,07,30,06,00,18.20
2009,07,30,06,01,18.30
2009,07,30,06,02,18.30
2009,07,30,06,03,18.30
2009,07,30,06,04,18.30
2009,07,30,06,05,18.30
2009,07,30,06,06,18.30
2009,07,30,06,07,18.30
2009,07,30,06,08,18.30
2009,07,30,06,09,18.30
2009,07,30,06,10,18.40
2009,07,30,06,11,18.40
2009,07,30,06,12,18.40
2009,07,30,06,13,18.40
2009,07,30,06,14,18.40
2009,07,30,06,15,18.40
2009,07,30,06,16,18.40
2009,07,30,06,17,18.40
2009,07,30,06,18,18.40
2009,07,30,06,19,18.40
2009,07,30,06,20,18.50
2009,07,30,06,21,18.50
2009,07,30,06,22,18.50
2009,07,30,06,23,18.50
2009,07,30,06,24,18.50
2009,07,30,06,25,18.40
2009,07,30,06,26,18.40
2009,07,30,06,27,18.40
2009,07,30,06,28,18.40
2009,07,30,06,29,18.30
2009,07,30,06,30,18.30
2009,07,30,06,31,18.30
2009,07,30,06,32,18.20
2009,07,30,06,33,18.20
2009,07,30,06,34,18.20
2009,07,30,06,35,18.10
2009,07,30,06,36,18.00
2009,07,30,06,37,17.90
2009,07,30,06,38,17.90
2009,07,30,06,39,17.80
2009,07,30,06,40,17.80
2009,07,30,06,41,17.70
2009,07,30,06,42,17.70
2009,07,30,06,43,17.70
2009,07,30,06,44,17.60
2009,07,30,06,45,17.50
2009,07,30,06,46,17.40
2009,07,30,06,47,17.30
2009,07,30,06,48,17.30
2009,07,30,06,49,17.30
2009,07,30,06,50,17.30
2009,07,30,06,51,17.30
2009,07,30,06,52,17.30
2009,07,30,06,53,17.20
2009,07,30,06,54,17.10
2009,07,30,06,55,17.10
2009,07,30,06,56,17.00
2009,07,30,06,57,17.00
2009,07,30,06,58,17.00
2009,07,30,06,59,16.90
2009,07,30,07,00,16.80
2009,07,30,07,01,16.80
2009,07,30,07,02,16.70
2009,07,30,07,03,16.70
2009,07,30,07,04,16.60
2009,07,30,07,05,16.50
2009,07,30,07,06,16.40
2009,07,30,07,07,16.40
2009,07,30,07,08,16.40
2009,07,30,07,09,16.40
2009,07,30,07,10,16.30
2009,07,30,07,11,16.30
2009,07,30,07,12,16.20
2009,07,30,07,13,16.20
2009,07,30,07,14,16.20
2009,07,30,07,15,16.20
2009,07,30,07,16,16.30
2009,07,30,07,17,16.30
2009,07,30,07,18,16.30
2009,07,30,07,19,16.30
2009,07,30,07,20,16.30
2009,07,30,07,21,16.30
2009,07,30,07,22,16.30
2009,07,30,07,23,16.40
2009,07,30,07,24,16.40
2009,07,30,07,25,16.40
2009,07,30,07,26,16.40
2009,07,30,07,27,16.40
2009,07,30,07,28,16.40
2009,07,30,07,29,16.40
2009,07,30,07,30,16.40
2009,07,30,07,31,16.40
2009,07,30,07,32,16.50
2009,07,30,07,33,16.60
2009,07,30,07,34,16.70
2009,07,30,07,35,16.70
2009,07,30,07,36,16.80
2009,07,30,07,37,16.90
2009,07,30,07,38,16.90
2009,07,30,07,39,17.00
2009,07,30,07,40,17.20
2009,07,30,07,41,17.30
2009,07,30,07,42,17.30
2009,07,30,07,43,17.40
2009,07,30,07,44,17.50
2009,07,30,07,45,17.50
2009,07,30,07,46,17.60
2009,07,30,07,47,17.70
2009,07,30,07,48,17.80
2009,07,30,07,49,17.90
2009,07,30,07,50,17.90
2009,07,30,07,51,17.90
2009,07,30,07,52,18.00
2009,07,30,07,53,18.10
2009,07,30,07,54,18.10
2009,07,30,07,55,18.20
2009,07,30,07,56,18.20
2009,07,30,07,57,18.30
2009,07,30,07,58,18.30
2009,07,30,07,59,18.40
2009,07,30,08,00,18.50
2009,07,30,08,01,18.50
2009,07,30,08,02,18.60
2009,07,30,08,03,18.70
2009,07,30,08,04,18.80
2009,07,30,08,05,18.90
2009,07,30,08,06,18.90
2009,07,30,08,07,19.00
2009,07,30,08,08,19.10
2009,07,30,08,09,19.10
2009,07,30,08,10,19.10
2009,07,30,08,11,19.20
2009,07,30,08,12,19.30
2009,07,30,08,13,19.30
2009,07,30,08,14,19.30
2009,07,30,08,15,19.30
2009,07,30,08,16,19.30
2009,07,30,08,17,19.30
2009,07,30,08,18,19.30
2009,07,30,08,19,19.30
2009,07,30,08,20,19.40
2009,07,30,08,21,19.40
2009,07,30,08,22,19.40
2009,07,30,08,23,19.50
2009,07,30,08,24,19.60
2009,07,30,08,25,19.70
2009,07,30,08,26,19.70
2009,07,30,08,27,19.80
2009,07,30,08,28,19.90
2009,07,30,08,29,19.90
2009,07,30,08,30,19.90
2009,07,30,08,31,20.10
2009,07,30,08,32,20.20
2009,07,30,08,33,20.20
2009,07,30,08,34,20.30
2009,07,30,08,35,20.40
2009,07,30,08,36,20.40
2009,07,30,08,37,20.50
2009,07,30,08,38,20.50
2009,07,30,08,39,20.60
2009,07,30,08,40,20.70
2009,07,30,08,41,20.70
2009,07,30,08,42,20.80
2009,07,30,08,43,20.80
2009,07,30,08,44,20.90
2009,07,30,08,45,20.90
2009,07,30,08,46,21.00
2009,07,30,08,47,21.00
2009,07,30,08,48,21.00
2009,07,30,08,49,21.10
2009,07,30,08,50,21.10
2009,07,30,08,51,21.20
2009,07,30,08,52,21.30
2009,07,30,08,53,21.30
2009,07,30,08,54,21.30
2009,07,30,08,55,21.40
2009,07,30,08,56,21.50
2009,07,30,08,57,21.60
2009,07,30,08,58,21.60
2009,07,30,08,59,21.60
2009,07,30,09,00,21.60
2009,07,30,09,01,21.60
2009,07,30,09,02,21.60
2009,07,30,09,03,21.60
2009,07,30,09,04,21.60
2009,07,30,09,05,21.60
2009,07,30,09,06,21.60
2009,07,30,09,07,21.50
2009,07,30,09,08,21.30
2009,07,30,09,09,21.30
2009,07,30,09,10,21.20
2009,07,30,09,11,21.10
2009,07,30,09,12,21.00
2009,07,30,09,13,20.90
2009,07,30,09,14,20.80
2009,07,30,09,15,20.80
2009,07,30,09,16,20.80
2009,07,30,09,17,20.90
2009,07,30,09,18,20.90
2009,07,30,09,19,21.00
2009,07,30,09,20,21.10
2009,07,30,09,21,21.20
2009,07,30,09,22,21.30
2009,07,30,09,23,21.30
2009,07,30,09,24,21.30
2009,07,30,09,25,21.30
2009,07,30,09,26,21.30
2009,07,30,09,27,21.30
2009,07,30,09,28,21.20
2009,07,30,09,29,21.20
2009,07,30,09,30,21.20
2009,07,30,09,31,21.10
2009,07,30,09,32,21.00
2009,07,30,09,33,21.00
2009,07,30,09,34,20.90
2009,07,30,09,35,20.90
2009,07,30,09,36,20.90
2009,07,30,09,37,20.80
2009,07,30,09,38,20.80
2009,07,30,09,39,20.70
2009,07,30,09,40,20.70
2009,07,30,09,41,20.60
2009,07,30,09,42,20.60
2009,07,30,09,43,20.50
2009,07,30,09,44,20.50
2009,07,30,09,45,20.40
2009,07,30,09,46,20.40
2009,07,30,09,47,20.30
2009,07,30,09,48,20.30
2009,07,30,09,49,20.30
2009,07,30,09,50,20.30
2009,07,30,09,51,20.40
2009,07,30,09,52,20.50
2009,07,30,09,53,20.60
2009,07,30,09,54,20.60
2009,07,30,09,55,20.70
2009,07,30,09,56,20.70
2009,07,30,09,57,20.80
2009,07,30,09,58,20.90
2009,07,30,09,59,20.90
2009,07,30,10,00,21.00
2009,07,30,10,01,20.90
2009,07,30,10,02,20.90
2009,07,30,10,03,20.90
2009,07,30,10,04,20.80
2009,07,30,10,05,20.70
2009,07,30,10,06,20.60
2009,07,30,10,07,20.50
2009,07,30,10,08,20.50
2009,07,30,10,09,20.40
2009,07,30,10,10,20.50
2009,07,30,10,11,20.50
2009,07,30,10,12,20.50
2009,07,30,10,13,20.50
2009,07,30,10,14,20.60
2009,07,30,10,15,20.60
2009,07,30,10,16,20.60
2009,07,30,10,17,20.60
2009,07,30,10,18,20.70
2009,07,30,10,19,20.70
2009,07,30,10,20,20.70
2009,07,30,10,21,20.80
2009,07,30,10,22,20.90
2009,07,30,10,23,21.00
2009,07,30,10,24,20.90
2009,07,30,10,25,20.80
2009,07,30,10,26,20.80
2009,07,30,10,27,20.80
2009,07,30,10,28,20.80
2009,07,30,10,29,20.90
2009,07,30,10,30,21.00
2009,07,30,10,31,21.00
2009,07,30,10,32,21.10
2009,07,30,10,33,21.10
2009,07,30,10,34,21.10
2009,07,30,10,35,21.20
2009,07,30,10,36,21.30
2009,07,30,10,37,21.30
2009,07,30,10,38,21.30
2009,07,30,10,39,21.30
2009,07,30,10,40,21.30
2009,07,30,10,41,21.30
2009,07,30,10,42,21.30
2009,07,30,10,43,21.30
2009,07,30,10,44,21.30
2009,07,30,10,45,21.30
2009,07,30,10,46,21.40
2009,07,30,10,47,21.60
2009,07,30,10,48,21.60
2009,07,30,10,49,21.60
2009,07,30,10,50,21.60
2009,07,30,10,51,21.60
2009,07,30,10,52,21.60
2009,07,30,10,53,21.40
2009,07,30,10,54,21.10
2009,07,30,10,55,20.80
2009,07,30,10,56,20.50
2009,07,30,10,57,20.30
2009,07,30,10,58,20.10
2009,07,30,10,59,19.90
2009,07,30,11,00,19.60
2009,07,30,11,01,19.60
2009,07,30,11,02,19.60
2009,07,30,11,03,19.60
2009,07,30,11,04,19.50
2009,07,30,11,05,19.50
2009,07,30,11,06,19.50
2009,07,30,11,07,19.40
2009,07,30,11,08,19.50
2009,07,30,11,09,19.60
2009,07,30,11,10,19.70
2009,07,30,11,11,19.90
2009,07,30,11,12,20.10
2009,07,30,11,13,20.40
2009,07,30,11,14,20.50
2009,07,30,11,15,20.50
2009,07,30,11,16,20.50
2009,07,30,11,17,20.40
2009,07,30,11,18,20.30
2009,07,30,11,19,20.20
2009,07,30,11,20,20.30
2009,07,30,11,21,20.30
2009,07,30,11,22,20.40
2009,07,30,11,23,20.50
2009,07,30,11,24,20.70
2009,07,30,11,25,20.80
2009,07,30,11,26,21.00
2009,07,30,11,27,21.00
2009,07,30,11,28,21.00
2009,07,30,11,29,21.00
2009,07,30,11,30,21.00
2009,07,30,11,31,21.00
2009,07,30,11,32,21.10
2009,07,30,11,33,21.00
2009,07,30,11,34,21.00
2009,07,30,11,35,21.10
2009,07,30,11,36,21.10
2009,07,30,11,37,21.20
2009,07,30,11,38,21.30
2009,07,30,11,39,21.40
2009,07,30,11,40,21.40
2009,07,30,11,41,21.50
2009,07,30,11,42,21.60
2009,07,30,11,43,21.60
2009,07,30,11,44,21.70
2009,07,30,11,45,21.80
2009,07,30,11,46,21.90
2009,07,30,11,47,22.00
2009,07,30,11,48,22.00
2009,07,30,11,49,22.10
2009,07,30,11,50,22.10
2009,07,30,11,51,22.10
2009,07,30,11,52,22.00
2009,07,30,11,53,22.10
2009,07,30,11,54,22.20
2009,07,30,11,55,22.30
2009,07,30,11,56,22.20
2009,07,30,11,57,22.10
2009,07,30,11,58,22.10
2009,07,30,11,59,22.10
2009,07,30,12,00,22.20
2009,07,30,12,01,22.30
2009,07,30,12,02,22.30
2009,07,30,12,03,22.30
2009,07,30,12,04,22.30
2009,07,30,12,05,22.40
2009,07,30,12,06,22.50
2009,07,30,12,07,22.50
2009,07,30,12,08,22.40
2009,07,30,12,09,22.30
2009,07,30,12,10,22.30
2009,07,30,12,11,22.30
2009,07,30,12,12,22.40
2009,07,30,12,13,22.50
2009,07,30,12,14,22.60
2009,07,30,12,15,22.70
2009,07,30,12,16,22.90
2009,07,30,12,17,22.90
2009,07,30,12,18,22.90
2009,07,30,12,19,22.90
2009,07,30,12,20,22.90
2009,07,30,12,21,23.00
2009,07,30,12,22,22.90
2009,07,30,12,23,23.00
2009,07,30,12,24,22.90
2009,07,30,12,25,22.90
2009,07,30,12,26,23.10
2009,07,30,12,27,23.20
2009,07,30,12,28,23.20
2009,07,30,12,29,23.30
2009,07,30,12,30,23.30
2009,07,30,12,31,23.30
2009,07,30,12,32,23.30
2009,07,30,12,33,23.30
2009,07,30,12,34,23.30
2009,07,30,12,35,23.30
2009,07,30,12,36,23.50
2009,07,30,12,37,23.60
2009,07,30,12,38,23.70
2009,07,30,12,39,23.80
2009,07,30,12,40,24.00
2009,07,30,12,41,24.10
2009,07,30,12,42,24.30
2009,07,30,12,43,24.40
2009,07,30,12,44,24.60
2009,07,30,12,45,24.60
2009,07,30,12,46,24.60
2009,07,30,12,47,24.70
2009,07,30,12,48,24.90
2009,07,30,12,49,25.00
2009,07,30,12,50,25.10
2009,07,30,12,51,25.00
2009,07,30,12,52,25.00
2009,07,30,12,53,25.00
2009,07,30,12,54,25.00
2009,07,30,12,55,25.10
2009,07,30,12,56,25.20
2009,07,30,12,57,25.30
2009,07,30,12,58,25.40
2009,07,30,12,59,25.40
2009,07,30,13,00,25.40
2009,07,30,13,01,25.40
2009,07,30,13,02,25.50
2009,07,30,13,03,25.50
2009,07,30,13,04,25.50
2009,07,30,13,05,25.50
2009,07,30,13,06,25.50
2009,07,30,13,07,25.40
2009,07,30,13,08,25.30
2009,07,30,13,09,25.30
2009,07,30,13,10,25.30
2009,07,30,13,11,25.40
2009,07,30,13,12,25.40
2009,07,30,13,13,25.50
2009,07,30,13,14,25.60
2009,07,30,13,15,25.60
2009,07,30,13,16,25.70
2009,07,30,13,17,25.80
2009,07,30,13,18,25.90
2009,07,30,13,19,25.90
2009,07,30,13,20,26.00
2009,07,30,13,21,26.10
2009,07,30,13,22,26.10
2009,07,30,13,23,26.10
2009,07,30,13,24,26.20
2009,07,30,13,25,26.20
2009,07,30,13,26,26.30
2009,07,30,13,27,26.30
2009,07,30,13,28,26.30
2009,07,30,13,29,26.40
2009,07,30,13,30,26.40
2009,07,30,13,31,26.40
2009,07,30,13,32,26.40
2009,07,30,13,33,26.40
2009,07,30,13,34,26.60
2009,07,30,13,35,26.60
2009,07,30,13,36,26.60
2009,07,30,13,37,26.70
2009,07,30,13,38,26.90
2009,07,30,13,39,27.10
2009,07,30,13,40,27.20
2009,07,30,13,41,27.10
2009,07,30,13,42,26.80
2009,07,30,13,43,26.60
2009,07,30,13,44,26.60
2009,07,30,13,45,26.60
2009,07,30,13,46,26.60
2009,07,30,13,47,26.60
2009,07,30,13,48,26.50
2009,07,30,13,49,26.50
2009,07,30,13,50,26.60
2009,07,30,13,51,26.70
2009,07,30,13,52,26.80
2009,07,30,13,53,26.90
2009,07,30,13,54,26.90
2009,07,30,13,55,26.90
2009,07,30,13,56,26.90
2009,07,30,13,57,26.80
2009,07,30,13,58,26.80
2009,07,30,13,59,26.70
2009,07,30,14,00,26.70
2009,07,30,14,01,26.80
2009,07,30,14,02,26.80
2009,07,30,14,03,26.80
2009,07,30,14,04,26.80
2009,07,30,14,05,26.80
2009,07,30,14,06,26.80
2009,07,30,14,07,26.80
2009,07,30,14,08,26.80
2009,07,30,14,09,26.80
2009,07,30,14,10,26.80
2009,07,30,14,11,26.90
2009,07,30,14,12,26.90
2009,07,30,14,13,26.80
2009,07,30,14,14,26.70
2009,07,30,14,15,26.70
2009,07,30,14,16,26.60
2009,07,30,14,17,26.60
2009,07,30,14,18,26.60
2009,07,30,14,19,26.60
2009,07,30,14,20,26.60
2009,07,30,14,21,26.80
2009,07,30,14,22,26.90
2009,07,30,14,23,27.10
2009,07,30,14,24,27.20
2009,07,30,14,25,27.20
2009,07,30,14,26,27.10
2009,07,30,14,27,27.20
2009,07,30,14,28,27.10
2009,07,30,14,29,27.20
2009,07,30,14,30,27.10
2009,07,30,14,31,27.20
2009,07,30,14,32,27.20
2009,07,30,14,33,27.20
2009,07,30,14,34,27.30
2009,07,30,14,35,27.30
2009,07,30,14,36,27.20
2009,07,30,14,37,27.10
2009,07,30,14,38,27.10
2009,07,30,14,39,27.10
2009,07,30,14,40,27.10
2009,07,30,14,41,27.10
2009,07,30,14,42,27.30
2009,07,30,14,43,27.20
2009,07,30,14,44,27.20
2009,07,30,14,45,27.30
2009,07,30,14,46,27.40
2009,07,30,14,47,27.60
2009,07,30,14,48,27.80
2009,07,30,14,49,27.90
2009,07,30,14,50,27.90
2009,07,30,14,51,27.90
2009,07,30,14,52,27.80
2009,07,30,14,53,27.50
2009,07,30,14,54,27.30
2009,07,30,14,55,27.20
2009,07,30,14,56,27.10
2009,07,30,14,57,26.90
2009,07,30,14,58,26.80
2009,07,30,14,59,26.60
2009,07,30,15,00,26.50
2009,07,30,15,01,26.40
2009,07,30,15,02,26.30
2009,07,30,15,03,26.40
2009,07,30,15,04,26.50
2009,07,30,15,05,26.60
2009,07,30,15,06,26.60
2009,07,30,15,07,26.50
2009,07,30,15,08,26.40
2009,07,30,15,09,26.40
2009,07,30,15,10,26.30
2009,07,30,15,11,26.30
2009,07,30,15,12,26.30
2009,07,30,15,13,26.40
2009,07,30,15,14,26.40
2009,07,30,15,15,26.50
2009,07,30,15,16,26.60
2009,07,30,15,17,26.70
2009,07,30,15,18,26.80
2009,07,30,15,19,26.80
2009,07,30,15,20,26.90
2009,07,30,15,21,26.90
2009,07,30,15,22,26.90
2009,07,30,15,23,26.80
2009,07,30,15,24,26.70
2009,07,30,15,25,26.70
2009,07,30,15,26,26.70
2009,07,30,15,27,26.70
2009,07,30,15,28,26.60
2009,07,30,15,29,26.60
2009,07,30,15,30,26.50
2009,07,30,15,31,26.40
2009,07,30,15,32,26.40
2009,07,30,15,33,26.60
2009,07,30,15,34,26.40
2009,07,30,15,35,26.60
2009,07,30,15,36,26.60
2009,07,30,15,37,26.70
2009,07,30,15,38,26.80
2009,07,30,15,39,26.80
2009,07,30,15,40,26.90
2009,07,30,15,41,27.00
2009,07,30,15,42,27.10
2009,07,30,15,43,27.10
2009,07,30,15,44,27.20
2009,07,30,15,45,27.30
2009,07,30,15,46,27.30
2009,07,30,15,47,27.20
2009,07,30,15,48,27.10
2009,07,30,15,49,27.00
2009,07,30,15,50,26.90
2009,07,30,15,51,26.90
2009,07,30,15,52,26.90
2009,07,30,15,53,27.00
2009,07,30,15,54,27.10
2009,07,30,15,55,27.10
2009,07,30,15,56,26.90
2009,07,30,15,57,26.80
2009,07,30,15,58,26.90
2009,07,30,15,59,26.90
2009,07,30,16,00,26.80
2009,07,30,16,01,26.60
2009,07,30,16,02,26.60
2009,07,30,16,03,26.60
2009,07,30,16,04,26.60
2009,07,30,16,05,26.60
2009,07,30,16,06,26.60
2009,07,30,16,07,26.50
2009,07,30,16,08,26.30
2009,07,30,16,09,26.10
2009,07,30,16,10,26.00
2009,07,30,16,11,26.00
2009,07,30,16,12,25.90
2009,07,30,16,13,25.90
2009,07,30,16,14,26.00
2009,07,30,16,15,26.00
2009,07,30,16,16,25.90
2009,07,30,16,17,25.90
2009,07,30,16,18,25.80
2009,07,30,16,19,25.80
2009,07,30,16,20,25.70
2009,07,30,16,21,25.80
2009,07,30,16,22,25.80
2009,07,30,16,23,25.70
2009,07,30,16,24,25.70
2009,07,30,16,25,25.80
2009,07,30,16,26,25.80
2009,07,30,16,27,25.80
2009,07,30,16,28,25.80
2009,07,30,16,29,25.60
2009,07,30,16,30,25.50
2009,07,30,16,31,25.40
2009,07,30,16,32,25.30
2009,07,30,16,33,25.30
2009,07,30,16,34,25.10
2009,07,30,16,35,25.00
2009,07,30,16,36,24.90
2009,07,30,16,37,24.70
2009,07,30,16,38,24.60
2009,07,30,16,39,24.50
2009,07,30,16,40,24.50
2009,07,30,16,41,24.50
2009,07,30,16,42,24.50
2009,07,30,16,43,24.50
2009,07,30,16,44,24.40
2009,07,30,16,45,24.50
2009,07,30,16,46,24.50
2009,07,30,16,47,24.40
2009,07,30,16,48,24.40
2009,07,30,16,49,24.40
2009,07,30,16,50,24.50
2009,07,30,16,51,24.60
2009,07,30,16,52,24.60
2009,07,30,16,53,24.50
2009,07,30,16,54,24.50
2009,07,30,16,55,24.50
2009,07,30,16,56,24.60
2009,07,30,16,57,24.70
2009,07,30,16,58,24.80
2009,07,30,16,59,24.80
2009,07,30,17,00,24.90
2009,07,30,17,01,24.80
2009,07,30,17,02,24.80
2009,07,30,17,03,24.40
2009,07,30,17,04,24.00
2009,07,30,17,05,23.60
2009,07,30,17,06,23.30
2009,07,30,17,07,23.10
2009,07,30,17,08,23.10
2009,07,30,17,09,23.10
2009,07,30,17,10,23.10
2009,07,30,17,11,23.10
2009,07,30,17,12,23.20
2009,07,30,17,13,23.20
2009,07,30,17,14,23.20
2009,07,30,17,15,23.10
2009,07,30,17,16,23.10
2009,07,30,17,17,23.10
2009,07,30,17,18,23.10
2009,07,30,17,19,23.00